星链-36517(STARLINK-36517)

导读

STARLINK-36517是美国太空探索技术公司(SpaceX)星链(Starlink)项目的卫星,于2026年1月14日发射升空。星链项目旨在搭建全球卫星互联网星座,为全球提供高速低延迟互联网服务,该卫星入轨后将进一步拓展星链星座的全球覆盖范围与服务能力。

Basic Information
目录编号:
67454
目录名称:
STARLINK-36517
国际标识:
2026-008K
轨道中心:
EARTH
卫星名称:
星链-36517
卫星全名:
星链-36517(STARLINK-36517)
卫星状态:
在轨 (已飞行233 天)
发射日期:
2026-01-14 UTC
国别 :
美国 (US)
星等 :
--
Orbit Information
数据来源 国际轨道数据
星历时间: 2026-09-03T20:04:29+0800
22小时前
查看轨道信息
半长轴: 6861.172km
偏心率: 0.0001883
轨道倾角: 43.002°
近地点辐角 282.929°
升交点赤经 281.287°
平近点角 77.135°
近地点: 481.743km
远地点: 484.327km
周期: 94.266分钟
每日圈数: 15.275848
Detailed Information
固有亮度:
5
最大亮度:
2.5
卫星平台:
Starlink V1.0
覆盖范围:
全球
运营商:
太空探索技术公司
运营商所在国:
美国
制造商(研发单位):
太空探索技术公司
制造商所在国:
美国
使用方式:
暂无
Satellite Introduction
Starlink 计划是 SpaceX 推出的全球卫星互联网项目,通过发射低轨道卫星,为全球尤其是偏远地区提供高速、低延迟的互联网服务。自 2019 年起,Starlink 已部署数千颗卫星,旨在缩小全球数字鸿沟,推动互联网普及。该项目还为军事、航空等行业提供通信支持,带来广泛经济效益。
2D Orbit Map
3D Orbit Map
Orbit Altitude Analysis Chart
Orbit Inclination Analysis Chart
Orbit Comprehensive Analysis Chart
View Comprehensive Chart
Conjunction Data List
Event ID Objects TCA Miss Dist (km) Collision Risk Probability Collision Risk Index (CRI) Action
CDM_260901-052505-483806-745421
2026-09-01T
05:25:07+0000
1.797 km
极远距离
2.186527E-6 低风险 0.42
CDM_260901-065905-483806-745421
2026-09-01T
06:59:16+0000
2.697 km
极远距离
9.369015E-7 极低风险 0.34